sat.trackr.live / text

‹ back to catalog

STARLINK-32491

NORAD 62043 · 2024-216M

PAYLOAD ACTIVE UNKNOWN

§ Identity

Operator
Country
US
Launch date
2024-11-21
Launch site
AFETR
Launch vehicle
Mass (kg)
RCS (m²)

Purposes: comms

External: N2YO · Heavens-Above · Gunter

§ Orbital elements

Epoch: 2026-09-21T14:48:22.300128Z

Period
94.27 min
Inclination
42.9984°
Eccentricity
0.0001391
Mean motion
15.27588443 rev/d
Perigee alt
482.1 km
Apogee alt
484.0 km
Semi-major
6,861.2 km
B*
5.4880e-4
RAAN
237.3111°
Arg perigee
285.5661°
Mean anomaly
74.5037°
Rev number
10,375

§ Raw data

STARLINK-324911 62043U 24216M   26264.61692477  .00014874  00000+0  54880-3 0  99932 62043  42.9984 237.3111 0001391 285.5661  74.5037 15.27588443103757

JSON: /api/v1/satellites/62043 · /tle

For live sub-satellite position, see the globe view (requires WebGL).

§ Visibility from observer

Set your observer location to see the next 7 days of passes ≥ 10°. The values pass through the URL so the page stays shareable.

No JS? Fill the form by hand. The geolocation button needs JavaScript.